HST
1 20580U 90037B   24096.69708346  .00004456  00000-0  21231-3 0  9999
2 20580  28.4681 110.4073 0002235 323.8674  36.1767 15.16609433666014
ISS (ZARYA)
1 25544U 98067A   24097.23546477  .00021685  00000-0  38739-3 0  9995
2 25544  51.6407 312.1434 0004729  39.3561  70.8282 15.49956353447385
CXO
1 25867U 99040B   24099.11342090  .00000981  00000-0  00000-0 0  9992
2 25867  39.6477 160.8755 8951214 291.2355   0.6641  0.37810152 14307